Clermont County, Batavia, OH

8:34 AM EDT on April 25, 2017 (GMT -0400)
Clermont County, Batavia

Weather History for KI69 - December, 2013

Change the Weather History Date:

Tuesday, December 10, 2013

  Actual Average (KLUK) Record (KLUK)
Temperature  
Mean Temperature 26 °F -  
Max Temperature 32 °F 43 °F 70 °F (1971)
Min Temperature 21 °F 28 °F 3 °F (1958)
Degree Days  
Heating Degree Days 38    
Moisture  
Dew Point 20 °F    
Average Humidity 77    
Maximum Humidity 100    
Minimum Humidity 55    
Precipitation  
Precipitation 0.01 in - - ()
Sea Level Pressure  
Sea Level Pressure 30.21 in    
Wind  
Wind Speed 7 mph (West)    
Max Wind Speed 17 mph    
Max Gust Speed 25 mph    
Visibility 8 miles    
Events Snow    
Averages and records for this station are not official NWS values.
T = Trace of Precipitation, MM = Missing Value Source: NWS Daily Summary

Daily Weather History Graph

Daily Weather History Graph

Search for Another Location

Airport or City:

Trip Planner

Search our weather history database for the weather conditions in past years. The results will help you decide how hot, cold, wet, or windy it might be!

Date:

Astronomy

Dec. 10, 2013 Rise Set
Actual Time 7:45 AM EST 5:14 PM EST
Civil Twilight 7:15 AM EST 5:44 PM EST
Nautical Twilight 6:41 AM EST 6:17 PM EST
Astronomical Twilight 6:09 AM EST 6:50 PM EST
Moon 1:12 PM EST (12/10) 1:05 AM EST (12/10)
Length of Visible Light 10h 28m
Length of Day
9h 29m
First Quarter, 61% of the Moon is Illuminated
Dec 10
First Quarter
Dec 17
Full
Dec 25
Last Quarter
Jan 1
New
Jan 7
First Quarter

Hourly Weather History & Observations

Time (EST) Temp. Windchill Dew Point Humidity Pressure Visibility Wind Dir Wind Speed Gust Speed Precip Events Conditions
12:14 AM 28.4 °F 21.2 °F 23.0 °F 80% 30.18 in 10.0 mi NNW 6.9 mph - N/A   Mostly Cloudy
12:33 AM 28.4 °F 21.2 °F 23.0 °F 80% 30.20 in 10.0 mi NNW 6.9 mph - N/A   Mostly Cloudy
12:54 AM 28.4 °F 22.2 °F 23.0 °F 80% 30.20 in 10.0 mi NNW 5.8 mph - N/A   Overcast
1:14 AM 28.4 °F 21.2 °F 21.2 °F 74% 30.19 in 10.0 mi NNW 6.9 mph - N/A   Mostly Cloudy
1:33 AM 28.4 °F 21.2 °F 19.4 °F 69% 30.19 in 10.0 mi NW 6.9 mph - N/A   Overcast
1:54 AM 28.4 °F 23.3 °F 19.4 °F 69% 30.18 in 10.0 mi NW 4.6 mph - N/A   Overcast
2:14 AM 26.6 °F 20.0 °F 19.4 °F 74% 30.15 in 10.0 mi NNW 5.8 mph - N/A   Overcast
2:33 AM 26.6 °F 20.0 °F 21.2 °F 80% 30.13 in 10.0 mi North 5.8 mph - N/A   Overcast
2:54 AM 26.6 °F 21.2 °F 21.2 °F 80% 30.16 in 4.0 mi North 4.6 mph - N/A Snow Light Snow
3:14 AM 26.6 °F 19.1 °F 21.2 °F 80% 30.17 in 2.5 mi NNW 6.9 mph - N/A Snow Light Snow
3:33 AM 24.8 °F 17.9 °F 23.0 °F 93% 30.18 in 4.0 mi NNW 5.8 mph - N/A Snow Light Snow
3:54 AM 24.8 °F 19.1 °F 23.0 °F 93% 30.18 in 5.0 mi NW 4.6 mph - N/A Snow Light Snow
4:14 AM 24.8 °F - 21.2 °F 86% 30.18 in 5.0 mi Calm Calm - N/A Snow Light Snow
4:33 AM 24.8 °F 20.5 °F 21.2 °F 86% 30.16 in 5.0 mi NNW 3.5 mph - N/A Snow Light Snow
4:54 AM 24.8 °F 17.9 °F 21.2 °F 86% 30.14 in 2.0 mi North 5.8 mph - N/A Snow Light Snow
5:14 AM 23.0 °F 14.7 °F 23.0 °F 100% 30.15 in 1.2 mi North 6.9 mph - N/A Snow Light Snow
5:33 AM 23.0 °F 17.0 °F 21.2 °F 93% 30.14 in 3.0 mi North 4.6 mph - 0.01 in Snow Light Snow
5:54 AM 23.0 °F 18.4 °F 23.0 °F 100% 30.14 in 2.5 mi NNW 3.5 mph - 0.01 in Snow Light Snow
6:14 AM 23.0 °F 17.0 °F 21.2 °F 93% 30.15 in 3.0 mi NW 4.6 mph - N/A Snow Light Snow
6:33 AM 23.0 °F 17.0 °F 21.2 °F 93% 30.15 in 2.0 mi NW 4.6 mph - N/A Snow Light Snow
6:54 AM 23.0 °F 18.4 °F 21.2 °F 93% 30.16 in 2.0 mi West 3.5 mph - N/A Snow Light Snow
7:14 AM 23.0 °F 18.4 °F 21.2 °F 93% 30.17 in 2.0 mi WNW 3.5 mph - N/A Snow Light Snow
7:33 AM 23.0 °F 17.0 °F 21.2 °F 93% 30.17 in 1.8 mi West 4.6 mph - N/A Snow Light Snow
7:54 AM 23.0 °F 18.4 °F 21.2 °F 93% 30.18 in 2.5 mi West 3.5 mph - N/A Snow Light Snow
8:14 AM 23.0 °F 18.4 °F 21.2 °F 93% 30.18 in 1.8 mi WSW 3.5 mph - N/A Snow Light Snow
8:33 AM 23.0 °F 15.8 °F 21.2 °F 93% 30.20 in 2.5 mi WNW 5.8 mph - N/A Snow Light Snow
8:54 AM 23.0 °F 17.0 °F 21.2 °F 93% 30.20 in 3.0 mi WNW 4.6 mph - N/A Snow Light Snow
9:14 AM 23.0 °F 15.8 °F 21.2 °F 93% 30.20 in 5.0 mi West 5.8 mph - N/A   Overcast
9:33 AM 24.8 °F 15.3 °F 21.2 °F 86% 30.22 in 10.0 mi West 9.2 mph - N/A   Overcast
9:54 AM 24.8 °F 16.1 °F 21.2 °F 86% 30.21 in 10.0 mi West 8.1 mph - N/A   Overcast
10:14 AM 24.8 °F 16.9 °F 21.2 °F 86% 30.22 in 7.0 mi West 6.9 mph - N/A   Overcast
10:34 AM 24.8 °F 12.9 °F 19.4 °F 80% 30.23 in 10.0 mi West 13.8 mph 17.3 mph N/A   Mostly Cloudy
10:54 AM 26.6 °F 16.2 °F 19.4 °F 74% 30.23 in 10.0 mi West 11.5 mph - N/A   Overcast
11:14 AM 26.6 °F 16.2 °F 19.4 °F 74% 30.23 in 10.0 mi West 11.5 mph 17.3 mph N/A   Mostly Cloudy
11:34 AM 26.6 °F 15.2 °F 19.4 °F 74% 30.23 in 10.0 mi WSW 13.8 mph - N/A   Scattered Clouds
11:54 AM 26.6 °F 17.5 °F 19.4 °F 74% 30.23 in 10.0 mi West 9.2 mph 18.4 mph N/A   Mostly Cloudy
12:14 PM 26.6 °F 15.7 °F 19.4 °F 74% 30.21 in 10.0 mi SW 12.7 mph - N/A   Mostly Cloudy
12:34 PM 28.4 °F 19.1 °F 19.4 °F 69% 30.20 in 10.0 mi SW 10.4 mph 17.3 mph N/A   Scattered Clouds
12:54 PM 28.4 °F 18.0 °F 19.4 °F 69% 30.19 in 10.0 mi SW 12.7 mph 18.4 mph N/A   Clear
1:14 PM 28.4 °F 18.5 °F 19.4 °F 69% 30.18 in 10.0 mi SW 11.5 mph 21.9 mph N/A   Clear
1:34 PM 30.2 °F 19.3 °F 19.4 °F 64% 30.16 in 10.0 mi SW 15.0 mph 20.7 mph N/A   Clear
1:54 PM 30.2 °F 19.8 °F 19.4 °F 64% 30.17 in 10.0 mi WSW 13.8 mph 17.3 mph N/A   Clear
2:14 PM 30.2 °F 21.3 °F 19.4 °F 64% 30.17 in 10.0 mi WSW 10.4 mph 18.4 mph N/A   Clear
2:34 PM 30.2 °F 19.3 °F 19.4 °F 64% 30.17 in 10.0 mi WSW 15.0 mph 21.9 mph N/A   Clear
2:54 PM 32.0 °F 21.2 °F 19.4 °F 60% 30.18 in 7.0 mi WSW 16.1 mph 24.2 mph N/A   Clear
3:14 PM 32.0 °F 20.8 °F 19.4 °F 60% 30.18 in 10.0 mi WSW 17.3 mph 25.3 mph N/A   Clear
3:34 PM 32.0 °F 22.5 °F 19.4 °F 60% 30.18 in 10.0 mi WSW 12.7 mph 19.6 mph N/A   Clear
3:54 PM 32.0 °F 23.6 °F 19.4 °F 60% 30.18 in 10.0 mi WSW 10.4 mph 21.9 mph N/A   Clear
4:14 PM 32.0 °F 22.5 °F 17.6 °F 55% 30.18 in 10.0 mi WSW 12.7 mph 23.0 mph N/A   Clear
4:34 PM 32.0 °F 23.0 °F 19.4 °F 60% 30.20 in 10.0 mi WSW 11.5 mph 20.7 mph N/A   Clear
4:54 PM 30.2 °F 21.3 °F 19.4 °F 64% 30.21 in 10.0 mi WSW 10.4 mph - N/A   Clear
5:14 PM 30.2 °F 21.3 °F 19.4 °F 64% 30.22 in 10.0 mi WSW 10.4 mph 16.1 mph N/A   Clear
5:34 PM 30.2 °F 22.6 °F 19.4 °F 64% 30.23 in 10.0 mi WSW 8.1 mph - N/A   Clear
5:54 PM 28.4 °F 20.4 °F 19.4 °F 69% 30.23 in 10.0 mi WSW 8.1 mph - N/A   Clear
6:13 PM 28.4 °F 20.4 °F 19.4 °F 69% 30.24 in 10.0 mi WSW 8.1 mph - N/A   Clear
6:34 PM 28.4 °F 20.4 °F 19.4 °F 69% 30.25 in 10.0 mi WSW 8.1 mph - N/A   Clear
6:54 PM 28.4 °F 20.4 °F 19.4 °F 69% 30.26 in 10.0 mi WSW 8.1 mph - N/A   Clear
7:13 PM 28.4 °F 19.7 °F 19.4 °F 69% 30.26 in 10.0 mi WSW 9.2 mph - N/A   Clear
7:34 PM 28.4 °F 20.4 °F 19.4 °F 69% 30.27 in 10.0 mi WSW 8.1 mph - N/A   Clear
7:54 PM 26.6 °F 18.2 °F 19.4 °F 74% 30.27 in 10.0 mi WSW 8.1 mph - N/A   Clear
8:13 PM 26.6 °F 18.2 °F 17.6 °F 69% 30.28 in 10.0 mi WSW 8.1 mph - N/A   Clear
8:34 PM 26.6 °F 20.0 °F 19.4 °F 74% 30.27 in 10.0 mi WSW 5.8 mph - N/A   Clear
8:54 PM 26.6 °F 21.2 °F 17.6 °F 69% 30.27 in 10.0 mi SW 4.6 mph - N/A   Clear
9:14 PM 24.8 °F 20.5 °F 17.6 °F 74% 30.29 in 10.0 mi SW 3.5 mph - N/A   Clear
9:34 PM 24.8 °F 19.1 °F 17.6 °F 74% 30.29 in 10.0 mi WSW 4.6 mph - N/A   Clear
9:54 PM 24.8 °F 16.9 °F 17.6 °F 74% 30.29 in 10.0 mi WSW 6.9 mph - N/A   Clear
10:14 PM 24.8 °F 16.9 °F 17.6 °F 74% 30.31 in 10.0 mi WSW 6.9 mph - N/A   Clear
10:34 PM 23.0 °F 17.0 °F 17.6 °F 80% 30.31 in 10.0 mi SW 4.6 mph - N/A   Clear
10:54 PM 23.0 °F 17.0 °F 17.6 °F 80% 30.32 in 10.0 mi SW 4.6 mph - N/A   Clear
11:14 PM 23.0 °F 15.8 °F 17.6 °F 80% 30.33 in 10.0 mi WSW 5.8 mph - N/A   Clear
11:34 PM 21.2 °F 12.6 °F 17.6 °F 86% 30.34 in 10.0 mi West 6.9 mph - N/A   Clear
11:54 PM 23.0 °F 15.8 °F 17.6 °F 80% 30.35 in 10.0 mi West 5.8 mph - N/A   Clear